CUSAT 2 & FALCON 9 R/B

Last updated on Thu Nov 21 2024 00:02:13 GMT+0000 (Coordinated Universal Time)

1 39271U 13055G 24325.51611631 .00188017 84199-5 99884-3 0 9998 2 39271 80.9151 246.1489 0182936 127.9124 233.8828 15.60145649589419
UTC large
Height (km)
Speed (km/s)
/
Latitude / Longitude
Inclination (degrees)
Orbital Period (minutes)
Azimuth
Elevation
Range (km)
Doppler Factor

Next 0 passes for location: London (51.5072 / 0.1276)

Sorry there are no passes over London.